Tracking 28790 objects as of 19-Apr-2024
HD Live streaming from Space Station
objects crossing your sky now

FREGAT R/B

Track FREGAT R/B now!


NORAD ID: 28133
Int'l Code: 2003-059B
Perigee: 4,464.7 km
Apogee: 35,754.1 km
Inclination: 24.1 °
Period: 714.7 minutes
Semi major axis: 26480 km
RCS: 9.0569 m2 (large)
Launch date: December 27, 2003
Source: Commonwealth of Independent States (former USSR) (CIS)
Launch site: TYURATAM MISSILE AND SPACE COMPLEX (TTMTR)

Note: This is a ROCKET BODY
Your satellite tracking list
Your tracking list is empty




NASA's NSSDC Master Catalog

Two Line Element Set (TLE):
1 28133U 03059B   24109.30229223 -.00000268  00000-0  00000-0 0  9990
2 28133  24.1438  17.5787 5908027 165.8527 223.1380  2.01472336149518
Source of the keplerian elements: AFSPC